Weather History for KSEE - December, 2012

Change the Weather History Date:

Thursday, December 13, 2012

  Actual Average Record
Temperature  
Mean Temperature 54 °F -  
Max Temperature 59 °F 71 °F 91 °F (1998)
Min Temperature 50 °F 39 °F 30 °F (1979)
Degree Days  
Heating Degree Days 10    
Growing Degree Days 4 (Base 50)    
Moisture  
Dew Point 46 °F    
Average Humidity 73    
Maximum Humidity 100    
Minimum Humidity 62    
Precipitation  
Precipitation 0.00 in - - ()
Sea Level Pressure  
Sea Level Pressure 29.82 in    
Wind  
Wind Speed 5 mph (SSE)    
Max Wind Speed 12 mph    
Max Gust Speed -    
Visibility 9 miles    
Events Rain    
Averages and records for this station are not official NWS values.
T = Trace of Precipitation, MM = Missing Value Source: NWS Daily Summary

Daily Weather History Graph

Daily Weather History Graph

Search for Another Location

Airport or City:

Trip Planner

Search our weather history database for the weather conditions in past years. The results will help you decide how hot, cold, wet, or windy it might be!

Date:

Astronomy

Dec. 13, 2012 Rise Set
Actual Time 6:42 AM PST 4:42 PM PST
Civil Twilight 6:14 AM PST 5:10 PM PST
Nautical Twilight 5:43 AM PST 5:40 PM PST
Astronomical Twilight 5:13 AM PST 6:10 PM PST
Moon 6:56 AM PST (12/13) 5:28 PM PST (12/13)
Length of Visible Light 10h 55m
Length of Day
10h 00m
New Moon, 0% of the Moon is Illuminated
Dec 13
New Moon
Dec 19
First Quarter
Dec 28
Full
Jan 4
Last Quarter
Jan 11
New

Hourly Weather History & Observations

Time (PST) Temp. Dew Point Humidity Pressure Visibility Wind Dir Wind Speed Gust Speed Precip Events Conditions
12:15 AM 59.0 °F 46.4 °F 63% 29.89 in 10.0 mi SSE 5.8 mph - N/A   Overcast
12:35 AM 59.0 °F 46.4 °F 63% 29.88 in 10.0 mi South 5.8 mph - N/A   Overcast
12:55 AM 59.0 °F 46.4 °F 63% 29.87 in 10.0 mi South 4.6 mph - N/A   Overcast
1:15 AM 57.2 °F 48.2 °F 72% 29.87 in 5.0 mi South 9.2 mph - N/A   Light Drizzle
1:35 AM 57.2 °F 48.2 °F 72% 29.87 in 10.0 mi SSE 6.9 mph - N/A   Mostly Cloudy
1:55 AM 57.2 °F 48.2 °F 72% 29.86 in 10.0 mi SE 5.8 mph - N/A   Overcast
2:15 AM 57.2 °F 48.2 °F 72% 29.86 in 10.0 mi SE 11.5 mph - N/A   Overcast
2:35 AM 55.4 °F 48.2 °F 77% 29.85 in 10.0 mi SSE 5.8 mph - N/A   Mostly Cloudy
2:55 AM 55.4 °F 48.2 °F 77% 29.85 in 10.0 mi SE 3.5 mph - N/A   Mostly Cloudy
3:15 AM 55.4 °F 48.2 °F 77% 29.84 in 10.0 mi SE 4.6 mph - N/A   Overcast
3:35 AM 55.4 °F 48.2 °F 77% 29.83 in 10.0 mi ESE 5.8 mph - N/A   Overcast
3:55 AM 55.4 °F 48.2 °F 77% 29.82 in 10.0 mi SSE 6.9 mph - N/A   Overcast
4:15 AM 55.4 °F 46.4 °F 72% 29.82 in 10.0 mi SE 5.8 mph - N/A   Overcast
4:35 AM 57.2 °F 46.4 °F 67% 29.81 in 10.0 mi SE 6.9 mph - N/A   Mostly Cloudy
4:55 AM 57.2 °F 46.4 °F 67% 29.81 in 10.0 mi SE 4.6 mph - N/A   Overcast
5:15 AM 55.4 °F 48.2 °F 77% 29.82 in 7.0 mi SSE 6.9 mph - N/A Rain Light Rain
6:47 AM 53.6 °F 53.6 °F 100% 29.83 in 4.0 mi Variable 3.5 mph - N/A Rain Rain
1:47 PM 55.4 °F 53.6 °F 94% 29.76 in 7.0 mi Calm Calm - N/A   Overcast
8:15 PM 51.8 °F 42.8 °F 71% 29.79 in 10.0 mi Calm Calm - N/A   Clear
8:35 PM 51.8 °F 42.8 °F 71% 29.80 in 10.0 mi SW 3.5 mph - N/A   Clear
8:55 PM 51.8 °F 41.0 °F 67% 29.80 in 10.0 mi SW 4.6 mph - N/A   Clear
9:15 PM 51.8 °F 41.0 °F 67% 29.80 in 10.0 mi WSW 3.5 mph - N/A   Partly Cloudy
9:55 PM 51.8 °F 41.0 °F 67% 29.80 in 10.0 mi Calm Calm - N/A   Scattered Clouds
10:15 PM 50.0 °F 44.6 °F 82% 29.80 in 10.0 mi Calm Calm - N/A   Mostly Cloudy
10:35 PM 50.0 °F 42.8 °F 76% 29.80 in 10.0 mi Calm Calm - N/A   Partly Cloudy
10:55 PM 51.8 °F 41.0 °F 67% 29.79 in 10.0 mi Calm Calm - N/A   Mostly Cloudy
11:15 PM 50.0 °F 41.0 °F 71% 29.80 in 10.0 mi WSW 3.5 mph - N/A   Partly Cloudy
11:35 PM 51.8 °F 39.2 °F 62% 29.80 in 10.0 mi WSW 6.9 mph - N/A   Clear
11:55 PM 50.0 °F 39.2 °F 66% 29.80 in 10.0 mi Calm Calm - N/A   Partly Cloudy